Regional Weather Roundup
Issued by NWS

Home | Current Version | Previous Version | Graphics & Text | Print | Product List | Glossary On
Versions: 1 2 3 4 5 6 7 8 9 10 11 12 13 14 15 16 17 18 19 20 21 22 23 24 25 26 27 28 29 30 31 32 33 34 35 36 37 38 39 40 41 42 43 44 45 46 47 48 49 50
000
ASUS43 KIND 040259
RWRIN

WEATHER ROUNDUP FOR INDIANA
NATIONAL WEATHER SERVICE INDIANAPOLIS IN
1000 PM EST TUE MAR 03 2015

NOTE: "FAIR" INDICATES FEW OR NO CLOUDS BELOW 12,000 FEET WITH NO
SIGNIFICANT WEATHER AND/OR OBSTRUCTIONS TO VISIBILITY.

* - STATION DOES NOT REPORT WEATHER SUCH AS PRECIPITATION OR FOG.

+ - STATION NOT QUALITY CONTROLLED BY THE NATIONAL WEATHER SERVICE.
    USE DATA WITH CAUTION...ESPECIALLY DEWPOINT AND RELATIVE
    HUMIDITY OBSERVATIONS.

INZ001>003-010>013-019-020-040400-
NORTHWEST INDIANA

CITY           SKY/WX    TMP DP  RH WIND       PRES   REMARKS
GARY /AIRPORT/ CLOUDY    36  27  69 W12G23    29.83R
MONTICELLO +   CLOUDY    34  32  92 W9        29.84R WCI  27
VALPARAISO     NOT AVBL

$$

LMZ046-743>745-040400-
SOUTHERN LAKE MICHIGAN

STATION/POSITION TIME  TEMP WIND        PRES
                       AIR  DIR/SP/G
                 (UTC) (F)  (DEG/KT/KT) (MB)
MICHIGAN CITY    0200   33  240/ 11/ 14   N/A

$$

INZ004-005-014>016-021>024-040400-
NORTH CENTRAL INDIANA

CITY           SKY/WX    TMP DP  RH WIND       PRES   REMARKS
GOSHEN         CLOUDY    34  29  82 W16       29.78R WCI  24
SOUTH BEND     CLOUDY    34 N/A N/A W13       29.81R WCI  25

$$

INZ006>009-017-018-025>027-040400-
NORTHEAST INDIANA

CITY           SKY/WX    TMP DP  RH WIND       PRES   REMARKS
ANGOLA *+      CLOUDY    34  28  80 W12       29.76R WCI  25
FORT WAYNE     CLOUDY    35  32  88 W17       29.81R WCI  25

$$

INZ028-029-035-036-043>045-051>053-040400-
WEST CENTRAL INDIANA

CITY           SKY/WX    TMP DP  RH WIND       PRES   REMARKS
CRAWFORDSVL +  CLOUDY    34  30  87 W8        29.86R WCI  27
GREENCASTLE +  CLOUDY    36  32  87 NW5       29.86S FOG
LAFAYETTE      CLOUDY    35  33  92 W10       29.85R WCI  27
TERRE HAUTE    CLOUDY    38  35  89 W7G22     29.89R

$$

INZ030>032-037>040-046>048-054>057-064-065-040400-
CENTRAL INDIANA

CITY           SKY/WX    TMP DP  RH WIND       PRES   REMARKS
COLUMBUS       LGT RAIN  37  36  93 W9        29.88R
INDIANAPOLIS   CLOUDY    36  34  92 W9        29.85R FOG
-EAGLE CREEK   CLOUDY    36  35  96 W9        29.85R
KOKOMO *+      CLOUDY    34  32  93 W15       29.83R WCI  24
MT COMFORT *+  CLOUDY    36 N/A N/A W9        29.85R
SHELBYVILLE    CLOUDY    39  36  89 W8        29.86R

$$

INZ033-034-041-042-049-050-058-059-040400-
EAST CENTRAL INDIANA

CITY           SKY/WX    TMP DP  RH WIND       PRES   REMARKS
MUNCIE         CLOUDY    36  34  92 W10       29.82R

$$

INZ060-061-067>069-081>083-085>088-040400-
SOUTHWEST INDIANA

CITY           SKY/WX    TMP DP  RH WIND       PRES   REMARKS
EVANSVILLE     RAIN      47  44  90 W7        29.92R FOG
HUNTINGBURG *+ CLOUDY    45  43  93 W7        29.91R

$$

INZ062-063-066-070>080-084-089>092-040400-
SOUTH CENTRAL AND SOUTHEAST INDIANA

CITY           SKY/WX    TMP DP  RH WIND       PRES   REMARKS
BLOOMINGTON    LGT RAIN  40  39  97 W6        29.88R

$$




USA.gov is the U.S. government's official web portal to all federal, state and local government web resources and services.